Time,TemperatureF,DewpointF,PressureIn,WindDirection,WindDirectionDegrees,WindSpeedMPH,WindSpeedGustMPH,Humidity,HourlyPrecipIn,Conditions,Clouds,dailyrainin,SoftwareType,DateUTC
2013-02-17 00:00:00,21.0,19.0,30.04,West,275,0.0,1.0,92,0.00,,---,0.00,VWS V14.01,2013-02-17 05:00:00,
2013-02-17 00:02:00,21.0,19.0,30.04,West,275,0.0,2.0,92,0.00,,---,0.00,VWS V14.01,2013-02-17 05:02:00,
2013-02-17 00:04:00,21.0,19.0,30.04,West,275,0.0,0.0,92,0.00,,---,0.00,VWS V14.01,2013-02-17 05:04:00,
2013-02-17 00:05:00,20.9,19.0,30.04,West,275,0.0,2.0,92,0.00,,---,0.00,VWS V14.01,2013-02-17 05:05:00,
2013-02-17 00:09:00,21.1,19.4,30.04,West,275,2.0,2.0,93,0.00,,---,0.00,VWS V14.01,2013-02-17 05:09:00,
2013-02-17 00:10:00,21.0,19.0,30.04,West,275,0.0,2.0,92,0.00,,---,0.00,VWS V14.01,2013-02-17 05:10:00,
2013-02-17 00:14:00,21.1,19.4,30.04,West,275,0.0,0.0,93,0.00,,---,0.00,VWS V14.01,2013-02-17 05:14:00,
2013-02-17 00:15:00,21.0,19.0,30.04,West,275,0.0,2.0,92,0.00,,---,0.00,VWS V14.01,2013-02-17 05:15:00,
2013-02-17 00:19:00,21.1,19.4,30.04,West,275,0.0,0.0,93,0.00,,---,0.00,VWS V14.01,2013-02-17 05:19:00,
2013-02-17 00:20:00,21.1,19.4,30.04,West,275,0.0,2.0,93,0.00,,---,0.00,VWS V14.01,2013-02-17 05:20:00,
2013-02-17 00:24:00,21.1,19.4,30.04,West,275,0.0,0.0,93,0.00,,---,0.00,VWS V14.01,2013-02-17 05:24:00,
2013-02-17 00:25:00,21.1,19.4,30.04,West,275,0.0,2.0,93,0.00,,---,0.00,VWS V14.01,2013-02-17 05:25:00,
2013-02-17 00:30:00,21.1,19.4,30.04,WSW,255,2.0,2.0,93,0.00,,---,0.00,VWS V14.01,2013-02-17 05:30:00,
2013-02-17 00:35:00,21.1,19.4,30.03,West,261,3.0,3.0,93,0.00,,---,0.00,VWS V14.01,2013-02-17 05:35:00,
2013-02-17 00:40:00,21.0,19.3,30.03,WNW,292,2.0,2.0,93,0.00,,---,0.00,VWS V14.01,2013-02-17 05:40:00,
2013-02-17 00:45:00,20.9,19.0,30.04,West,263,1.0,1.0,92,0.00,,---,0.00,VWS V14.01,2013-02-17 05:45:00,
2013-02-17 00:50:00,20.7,18.8,30.04,WSW,237,0.0,0.0,92,0.00,,---,0.00,VWS V14.01,2013-02-17 05:50:00,
2013-02-17 00:55:00,20.6,18.6,30.03,West,267,1.0,3.0,92,0.00,,---,0.00,VWS V14.01,2013-02-17 05:55:00,
2013-02-17 01:00:00,20.5,18.5,30.04,WSW,237,0.0,4.0,92,0.00,,---,0.00,VWS V14.01,2013-02-17 06:00:00,
2013-02-17 01:05:00,20.4,18.2,30.04,WSW,240,0.0,7.0,91,0.00,,---,0.00,VWS V14.01,2013-02-17 06:05:00,
2013-02-17 01:10:00,20.3,18.1,30.04,West,271,0.0,2.0,91,0.00,,---,0.00,VWS V14.01,2013-02-17 06:10:00,
2013-02-17 01:15:00,20.4,18.2,30.04,West,264,2.0,7.0,91,0.00,,---,0.00,VWS V14.01,2013-02-17 06:15:00,
2013-02-17 01:16:00,20.2,18.0,30.04,WSW,255,0.0,3.0,91,0.00,,---,0.00,VWS V14.01,2013-02-17 06:16:00,
2013-02-17 01:20:00,20.3,18.1,30.04,WSW,250,0.0,7.0,91,0.00,,---,0.00,VWS V14.01,2013-02-17 06:20:00,
2013-02-17 01:21:00,20.1,18.1,30.04,WSW,250,2.0,5.0,92,0.00,,---,0.00,VWS V14.01,2013-02-17 06:21:00,
2013-02-17 01:25:00,20.3,18.1,30.04,NE,46,0.0,3.0,91,0.00,,---,0.00,VWS V14.01,2013-02-17 06:25:00,
2013-02-17 01:26:00,20.0,18.0,30.05,West,259,2.0,3.0,92,0.00,,---,0.00,VWS V14.01,2013-02-17 06:26:00,
2013-02-17 01:30:00,20.2,18.2,30.04,WSW,238,0.0,5.0,92,0.00,,---,0.00,VWS V14.01,2013-02-17 06:30:00,
2013-02-17 01:31:00,19.9,18.0,30.05,SW,214,2.0,4.0,92,0.00,,---,0.00,VWS V14.01,2013-02-17 06:31:00,
2013-02-17 01:35:00,20.0,18.0,30.05,West,259,1.0,5.0,92,0.00,,---,0.00,VWS V14.01,2013-02-17 06:35:00,
2013-02-17 01:36:00,19.9,18.2,30.05,SW,218,0.0,0.0,93,0.00,,---,0.00,VWS V14.01,2013-02-17 06:36:00,
2013-02-17 01:40:00,19.9,18.0,30.04,WSW,250,4.0,7.0,92,0.00,,---,0.00,VWS V14.01,2013-02-17 06:40:00,
2013-02-17 01:41:00,19.9,18.2,30.05,SW,218,0.0,0.0,93,0.00,,---,0.00,VWS V14.01,2013-02-17 06:41:00,
2013-02-17 01:45:00,19.9,18.2,30.05,SW,218,0.0,4.0,93,0.00,,---,0.00,VWS V14.01,2013-02-17 06:45:00,
2013-02-17 01:46:00,19.8,18.1,30.05,WSW,255,0.0,5.0,93,0.00,,---,0.00,VWS V14.01,2013-02-17 06:46:00,
2013-02-17 01:50:00,19.9,18.2,30.05,SW,218,0.0,0.0,93,0.00,,---,0.00,VWS V14.01,2013-02-17 06:50:00,
2013-02-17 01:51:00,19.7,18.0,30.05,WSW,251,3.0,5.0,93,0.00,,---,0.00,VWS V14.01,2013-02-17 06:51:00,
2013-02-17 01:55:00,19.8,18.1,30.05,West,272,0.0,2.0,93,0.00,,---,0.00,VWS V14.01,2013-02-17 06:55:00,
2013-02-17 01:56:00,19.6,17.9,30.05,WSW,254,1.0,1.0,93,0.00,,---,0.00,VWS V14.01,2013-02-17 06:56:00,
2013-02-17 02:00:00,19.7,18.0,30.05,WNW,282,2.0,5.0,93,0.00,,---,0.00,VWS V14.01,2013-02-17 07:00:00,
2013-02-17 02:01:00,19.4,17.7,30.06,WSW,254,1.0,3.0,93,0.00,,---,0.00,VWS V14.01,2013-02-17 07:01:00,
2013-02-17 02:05:00,19.7,18.0,30.05,WSW,247,0.0,5.0,93,0.00,,---,0.00,VWS V14.01,2013-02-17 07:05:00,
2013-02-17 02:06:00,19.2,17.5,30.06,WSW,254,0.0,0.0,93,0.00,,---,0.00,VWS V14.01,2013-02-17 07:06:00,
2013-02-17 02:10:00,19.5,17.8,30.05,WSW,254,0.0,2.0,93,0.00,,---,0.00,VWS V14.01,2013-02-17 07:10:00,
2013-02-17 02:11:00,19.1,17.4,30.06,WSW,253,1.0,3.0,93,0.00,,---,0.00,VWS V14.01,2013-02-17 07:11:00,
2013-02-17 02:15:00,19.3,17.6,30.06,WSW,254,0.0,3.0,93,0.00,,---,0.00,VWS V14.01,2013-02-17 07:15:00,
2013-02-17 02:16:00,18.9,17.2,30.06,WSW,254,1.0,2.0,93,0.00,,---,0.00,VWS V14.01,2013-02-17 07:16:00,
2013-02-17 02:20:00,19.1,17.4,30.05,WSW,254,0.0,0.0,93,0.00,,---,0.00,VWS V14.01,2013-02-17 07:20:00,
2013-02-17 02:21:00,18.8,17.1,30.05,WSW,253,1.0,2.0,93,0.00,,---,0.00,VWS V14.01,2013-02-17 07:21:00,
2013-02-17 02:25:00,19.0,17.3,30.06,WSW,253,0.0,3.0,93,0.00,,---,0.00,VWS V14.01,2013-02-17 07:25:00,
2013-02-17 02:26:00,18.7,17.0,30.06,WSW,253,3.0,3.0,93,0.00,,---,0.00,VWS V14.01,2013-02-17 07:26:00,
2013-02-17 02:30:00,18.9,17.2,30.05,WSW,254,0.0,2.0,93,0.00,,---,0.00,VWS V14.01,2013-02-17 07:30:00,
2013-02-17 02:31:00,18.6,16.9,30.06,WSW,253,2.0,3.0,93,0.00,,---,0.00,VWS V14.01,2013-02-17 07:31:00,
2013-02-17 02:35:00,18.8,17.1,30.06,WSW,254,0.0,2.0,93,0.00,,---,0.00,VWS V14.01,2013-02-17 07:35:00,
2013-02-17 02:36:00,18.5,16.8,30.07,WSW,253,0.0,0.0,93,0.00,,---,0.00,VWS V14.01,2013-02-17 07:36:00,
2013-02-17 02:40:00,18.7,17.0,30.06,WSW,253,3.0,3.0,93,0.00,,---,0.00,VWS V14.01,2013-02-17 07:40:00,
2013-02-17 02:41:00,18.4,16.7,30.06,WSW,253,0.0,0.0,93,0.00,,---,0.00,VWS V14.01,2013-02-17 07:41:00,
2013-02-17 02:45:00,18.5,16.8,30.06,WSW,253,0.0,3.0,93,0.00,,---,0.00,VWS V14.01,2013-02-17 07:45:00,
2013-02-17 02:46:00,18.3,16.6,30.06,WSW,253,0.0,0.0,93,0.00,,---,0.00,VWS V14.01,2013-02-17 07:46:00,
2013-02-17 02:50:00,18.4,16.7,30.06,WSW,253,0.0,0.0,93,0.00,,---,0.00,VWS V14.01,2013-02-17 07:50:00,
2013-02-17 02:51:00,18.3,16.6,30.06,WSW,253,0.0,0.0,93,0.00,,---,0.00,VWS V14.01,2013-02-17 07:51:00,
2013-02-17 02:55:00,18.4,16.7,30.06,WSW,253,0.0,0.0,93,0.00,,---,0.00,VWS V14.01,2013-02-17 07:55:00,
2013-02-17 02:56:00,18.2,16.5,30.06,WSW,253,1.0,3.0,93,0.00,,---,0.00,VWS V14.01,2013-02-17 07:56:00,
2013-02-17 03:00:00,18.3,16.6,30.06,WSW,253,0.0,0.0,93,0.00,,---,0.00,VWS V14.01,2013-02-17 08:00:00,
2013-02-17 03:01:00,18.2,16.5,30.06,WSW,253,0.0,2.0,93,0.00,,---,0.00,VWS V14.01,2013-02-17 08:01:00,
2013-02-17 03:05:00,18.2,16.5,30.06,WSW,253,0.0,1.0,93,0.00,,---,0.00,VWS V14.01,2013-02-17 08:05:00,
2013-02-17 03:07:00,18.1,16.4,30.06,West,265,0.0,4.0,93,0.00,,---,0.00,VWS V14.01,2013-02-17 08:07:00,
2013-02-17 03:10:00,18.2,16.5,30.06,WSW,253,0.0,3.0,93,0.00,,---,0.00,VWS V14.01,2013-02-17 08:10:00,
2013-02-17 03:12:00,18.0,16.3,30.06,West,265,0.0,2.0,93,0.00,,---,0.00,VWS V14.01,2013-02-17 08:12:00,
2013-02-17 03:15:00,18.2,16.5,30.07,WSW,253,0.0,2.0,93,0.00,,---,0.00,VWS V14.01,2013-02-17 08:15:00,
2013-02-17 03:17:00,17.9,16.2,30.06,West,265,0.0,2.0,93,0.00,,---,0.00,VWS V14.01,2013-02-17 08:17:00,
2013-02-17 03:20:00,18.1,16.4,30.06,West,265,2.0,4.0,93,0.00,,---,0.00,VWS V14.01,2013-02-17 08:20:00,
2013-02-17 03:22:00,17.8,16.1,30.06,West,265,0.0,0.0,93,0.00,,---,0.00,VWS V14.01,2013-02-17 08:22:00,
2013-02-17 03:25:00,18.0,16.3,30.06,West,265,0.0,2.0,93,0.00,,---,0.00,VWS V14.01,2013-02-17 08:25:00,
2013-02-17 03:27:00,17.8,16.1,30.06,West,265,0.0,2.0,93,0.00,,---,0.00,VWS V14.01,2013-02-17 08:27:00,
2013-02-17 03:30:00,17.9,16.2,30.07,West,265,0.0,2.0,93,0.00,,---,0.00,VWS V14.01,2013-02-17 08:30:00,
2013-02-17 03:32:00,17.8,16.1,30.06,West,265,0.0,0.0,93,0.00,,---,0.00,VWS V14.01,2013-02-17 08:32:00,
2013-02-17 03:35:00,17.8,16.1,30.06,West,265,2.0,2.0,93,0.00,,---,0.00,VWS V14.01,2013-02-17 08:35:00,
2013-02-17 03:37:00,17.8,16.1,30.06,West,265,0.0,1.0,93,0.00,,---,0.00,VWS V14.01,2013-02-17 08:37:00,
2013-02-17 03:40:00,17.8,16.1,30.06,West,265,0.0,2.0,93,0.00,,---,0.00,VWS V14.01,2013-02-17 08:40:00,
2013-02-17 03:42:00,17.7,16.0,30.07,West,265,1.0,1.0,93,0.00,,---,0.00,VWS V14.01,2013-02-17 08:42:00,
2013-02-17 03:45:00,17.8,16.1,30.06,West,265,0.0,0.0,93,0.00,,---,0.00,VWS V14.01,2013-02-17 08:45:00,
2013-02-17 03:47:00,17.7,16.0,30.07,West,265,0.0,1.0,93,0.00,,---,0.00,VWS V14.01,2013-02-17 08:47:00,
2013-02-17 03:50:00,17.7,16.0,30.06,West,265,0.0,1.0,93,0.00,,---,0.00,VWS V14.01,2013-02-17 08:50:00,
2013-02-17 03:52:00,17.7,16.0,30.07,West,265,0.0,2.0,93,0.00,,---,0.00,VWS V14.01,2013-02-17 08:52:00,
2013-02-17 03:55:00,17.7,16.0,30.06,West,265,0.0,1.0,93,0.00,,---,0.00,VWS V14.01,2013-02-17 08:55:00,
2013-02-17 03:57:00,17.7,16.0,30.07,West,265,0.0,1.0,93,0.00,,---,0.00,VWS V14.01,2013-02-17 08:57:00,
2013-02-17 04:00:00,17.7,16.0,30.07,West,265,0.0,1.0,93,0.00,,---,0.00,VWS V14.01,2013-02-17 09:00:00,
2013-02-17 04:02:00,17.7,16.0,30.07,West,265,0.0,0.0,93,0.00,,---,0.00,VWS V14.01,2013-02-17 09:02:00,
2013-02-17 04:05:00,17.7,16.0,30.07,West,265,1.0,2.0,93,0.00,,---,0.00,VWS V14.01,2013-02-17 09:05:00,
2013-02-17 04:07:00,17.7,16.3,30.07,West,265,0.0,0.0,94,0.00,,---,0.00,VWS V14.01,2013-02-17 09:07:00,
2013-02-17 04:10:00,17.7,16.0,30.07,West,265,0.0,1.0,93,0.00,,---,0.00,VWS V14.01,2013-02-17 09:10:00,
2013-02-17 04:12:00,17.7,16.3,30.07,West,265,0.0,1.0,94,0.00,,---,0.00,VWS V14.01,2013-02-17 09:12:00,
2013-02-17 04:15:00,17.7,16.0,30.07,West,265,0.0,0.0,93,0.00,,---,0.00,VWS V14.01,2013-02-17 09:15:00,
2013-02-17 04:17:00,17.8,16.4,30.07,SW,218,0.0,5.0,94,0.00,,---,0.00,VWS V14.01,2013-02-17 09:17:00,
2013-02-17 04:20:00,17.7,16.0,30.07,West,265,0.0,0.0,93,0.00,,---,0.00,VWS V14.01,2013-02-17 09:20:00,
2013-02-17 04:22:00,17.8,16.4,30.07,SW,236,2.0,5.0,94,0.00,,---,0.00,VWS V14.01,2013-02-17 09:22:00,
2013-02-17 04:25:00,17.8,16.1,30.07,WSW,248,3.0,3.0,93,0.00,,---,0.00,VWS V14.01,2013-02-17 09:25:00,
2013-02-17 04:27:00,17.9,16.5,30.08,West,274,0.0,3.0,94,0.00,,---,0.00,VWS V14.01,2013-02-17 09:27:00,
2013-02-17 04:30:00,17.8,16.4,30.07,West,280,2.0,5.0,94,0.00,,---,0.00,VWS V14.01,2013-02-17 09:30:00,
2013-02-17 04:32:00,17.8,16.4,30.08,WNW,294,1.0,6.0,94,0.00,,---,0.00,VWS V14.01,2013-02-17 09:32:00,
2013-02-17 04:35:00,17.9,16.5,30.07,WNW,285,2.0,5.0,94,0.00,,---,0.00,VWS V14.01,2013-02-17 09:35:00,
2013-02-17 04:38:00,17.6,15.9,30.08,SW,229,0.0,7.0,93,0.00,,---,0.00,VWS V14.01,2013-02-17 09:38:00,
2013-02-17 04:40:00,17.9,16.5,30.08,West,273,0.0,3.0,94,0.00,,---,0.00,VWS V14.01,2013-02-17 09:40:00,
2013-02-17 04:43:00,17.3,15.6,30.08,SW,229,7.0,7.0,93,0.00,,---,0.00,VWS V14.01,2013-02-17 09:43:00,
2013-02-17 04:45:00,17.8,16.4,30.08,WSW,240,0.0,6.0,94,0.00,,---,0.00,VWS V14.01,2013-02-17 09:45:00,
2013-02-17 04:48:00,17.1,15.4,30.09,West,275,2.0,7.0,93,0.00,,---,0.00,VWS V14.01,2013-02-17 09:48:00,
2013-02-17 04:50:00,17.5,15.8,30.08,WNW,286,0.0,7.0,93,0.00,,---,0.00,VWS V14.01,2013-02-17 09:50:00,
2013-02-17 04:53:00,16.9,15.0,30.09,WNW,289,1.0,10.0,92,0.00,,---,0.00,VWS V14.01,2013-02-17 09:53:00,
2013-02-17 04:55:00,17.3,15.6,30.08,SW,226,0.0,7.0,93,0.00,,---,0.00,VWS V14.01,2013-02-17 09:55:00,
2013-02-17 04:58:00,16.7,14.8,30.08,WNW,296,0.0,4.0,92,0.00,,---,0.00,VWS V14.01,2013-02-17 09:58:00,
2013-02-17 05:00:00,16.2,14.3,30.09,WSW,258,1.0,3.0,92,0.00,,---,0.00,VWS V14.01,2013-02-17 10:00:00,
2013-02-17 05:03:00,16.5,14.3,30.08,WSW,245,3.0,7.0,91,0.00,,---,0.00,VWS V14.01,2013-02-17 10:03:00,
2013-02-17 05:05:00,16.9,15.0,30.09,WNW,286,3.0,10.0,92,0.00,,---,0.00,VWS V14.01,2013-02-17 10:05:00,
2013-02-17 05:08:00,16.3,14.1,30.09,WSW,244,0.0,4.0,91,0.00,,---,0.00,VWS V14.01,2013-02-17 10:08:00,
2013-02-17 05:10:00,16.7,14.5,30.08,WNW,296,0.0,4.0,91,0.00,,---,0.00,VWS V14.01,2013-02-17 10:10:00,
2013-02-17 05:13:00,16.2,14.0,30.09,West,280,0.0,3.0,91,0.00,,---,0.00,VWS V14.01,2013-02-17 10:13:00,
2013-02-17 05:15:00,16.5,14.3,30.08,WSW,245,2.0,7.0,91,0.00,,---,0.00,VWS V14.01,2013-02-17 10:15:00,
2013-02-17 05:18:00,16.2,14.0,30.09,WNW,286,2.0,4.0,91,0.00,,---,0.00,VWS V14.01,2013-02-17 10:18:00,
2013-02-17 05:20:00,16.3,14.1,30.09,WSW,244,0.0,4.0,91,0.00,,---,0.00,VWS V14.01,2013-02-17 10:20:00,
2013-02-17 05:23:00,16.2,14.0,30.09,West,280,0.0,5.0,91,0.00,,---,0.00,VWS V14.01,2013-02-17 10:23:00,
2013-02-17 05:25:00,16.2,14.0,30.09,West,280,0.0,3.0,91,0.00,,---,0.00,VWS V14.01,2013-02-17 10:25:00,
2013-02-17 05:28:00,16.3,14.1,30.09,WNW,294,0.0,0.0,91,0.00,,---,0.00,VWS V14.01,2013-02-17 10:28:00,
2013-02-17 05:30:00,16.2,14.0,30.09,WNW,286,2.0,4.0,91,0.00,,---,0.00,VWS V14.01,2013-02-17 10:30:00,
2013-02-17 05:34:00,16.3,14.1,30.09,WNW,283,3.0,3.0,91,0.00,,---,0.00,VWS V14.01,2013-02-17 10:34:00,
2013-02-17 05:35:00,16.2,14.0,30.09,West,280,0.0,5.0,91,0.00,,---,0.00,VWS V14.01,2013-02-17 10:35:00,
2013-02-17 05:39:00,16.3,14.4,30.09,West,280,0.0,0.0,92,0.00,,---,0.00,VWS V14.01,2013-02-17 10:39:00,
2013-02-17 05:40:00,16.3,14.1,30.09,WNW,294,0.0,3.0,91,0.00,,---,0.00,VWS V14.01,2013-02-17 10:40:00,
2013-02-17 05:44:00,16.3,14.4,30.09,West,280,0.0,0.0,92,0.00,,---,0.00,VWS V14.01,2013-02-17 10:44:00,
2013-02-17 05:45:00,16.3,14.1,30.09,WNW,294,2.0,2.0,91,0.00,,---,0.00,VWS V14.01,2013-02-17 10:45:00,
2013-02-17 05:49:00,16.2,14.3,30.09,WSW,254,2.0,3.0,92,0.00,,---,0.00,VWS V14.01,2013-02-17 10:49:00,
2013-02-17 05:50:00,16.3,14.4,30.09,West,280,0.0,3.0,92,0.00,,---,0.00,VWS V14.01,2013-02-17 10:50:00,
2013-02-17 05:54:00,16.1,14.2,30.09,WNW,303,1.0,1.0,92,0.00,,---,0.00,VWS V14.01,2013-02-17 10:54:00,
2013-02-17 05:55:00,16.3,14.4,30.10,West,280,0.0,0.0,92,0.00,,---,0.00,VWS V14.01,2013-02-17 10:55:00,
2013-02-17 05:59:00,16.0,14.1,30.09,West,271,0.0,0.0,92,0.00,,---,0.00,VWS V14.01,2013-02-17 10:59:00,
2013-02-17 06:00:00,16.2,14.3,30.09,WSW,258,1.0,3.0,92,0.00,,---,0.00,VWS V14.01,2013-02-17 11:00:00,
2013-02-17 06:04:00,16.0,13.8,30.09,West,273,3.0,3.0,91,0.00,,---,0.00,VWS V14.01,2013-02-17 11:04:00,
2013-02-17 06:05:00,16.2,14.3,30.09,West,263,0.0,4.0,92,0.00,,---,0.00,VWS V14.01,2013-02-17 11:05:00,
2013-02-17 06:09:00,15.9,14.0,30.09,WNW,299,0.0,1.0,92,0.00,,---,0.00,VWS V14.01,2013-02-17 11:09:00,
2013-02-17 06:10:00,16.1,14.2,30.10,West,271,0.0,5.0,92,0.00,,---,0.00,VWS V14.01,2013-02-17 11:10:00,
2013-02-17 06:14:00,15.8,13.6,30.10,WNW,300,0.0,1.0,91,0.00,,---,0.00,VWS V14.01,2013-02-17 11:14:00,
2013-02-17 06:15:00,16.0,13.8,30.09,WNW,292,0.0,1.0,91,0.00,,---,0.00,VWS V14.01,2013-02-17 11:15:00,
2013-02-17 06:19:00,15.7,13.5,30.10,West,267,0.0,0.0,91,0.00,,---,0.00,VWS V14.01,2013-02-17 11:19:00,
2013-02-17 06:20:00,15.9,13.7,30.09,WNW,300,0.0,3.0,91,0.00,,---,0.00,VWS V14.01,2013-02-17 11:20:00,
2013-02-17 06:24:00,15.6,13.4,30.10,WNW,285,2.0,2.0,91,0.00,,---,0.00,VWS V14.01,2013-02-17 11:24:00,
2013-02-17 06:25:00,15.8,13.6,30.09,WNW,299,0.0,1.0,91,0.00,,---,0.00,VWS V14.01,2013-02-17 11:25:00,
2013-02-17 06:29:00,15.5,13.4,30.10,WNW,284,0.0,1.0,91,0.00,,---,0.00,VWS V14.01,2013-02-17 11:29:00,
2013-02-17 06:30:00,15.7,13.5,30.10,West,267,0.0,4.0,91,0.00,,---,0.00,VWS V14.01,2013-02-17 11:30:00,
2013-02-17 06:34:00,15.5,13.4,30.10,West,263,0.0,0.0,91,0.00,,---,0.00,VWS V14.01,2013-02-17 11:34:00,
2013-02-17 06:35:00,15.6,13.4,30.10,West,279,1.0,4.0,91,0.00,,---,0.00,VWS V14.01,2013-02-17 11:35:00,
2013-02-17 06:39:00,15.5,13.4,30.10,NNE,26,0.0,0.0,91,0.00,,---,0.00,VWS V14.01,2013-02-17 11:39:00,
2013-02-17 06:40:00,15.5,13.4,30.10,WNW,285,1.0,2.0,91,0.00,,---,0.00,VWS V14.01,2013-02-17 11:40:00,
2013-02-17 06:44:00,15.6,13.4,30.11,NNW,328,0.0,1.0,91,0.00,,---,0.00,VWS V14.01,2013-02-17 11:44:00,
2013-02-17 06:45:00,15.5,13.4,30.10,West,263,0.0,3.0,91,0.00,,---,0.00,VWS V14.01,2013-02-17 11:45:00,
2013-02-17 06:49:00,15.5,13.4,30.10,WNW,284,0.0,2.0,91,0.00,,---,0.00,VWS V14.01,2013-02-17 11:49:00,
2013-02-17 06:50:00,15.5,13.4,30.10,WNW,288,0.0,4.0,91,0.00,,---,0.00,VWS V14.01,2013-02-17 11:50:00,
2013-02-17 06:54:00,15.5,13.4,30.10,WNW,298,0.0,0.0,91,0.00,,---,0.00,VWS V14.01,2013-02-17 11:54:00,
2013-02-17 06:55:00,15.5,13.4,30.10,NNW,328,1.0,2.0,91,0.00,,---,0.00,VWS V14.01,2013-02-17 11:55:00,
2013-02-17 07:00:00,15.5,13.4,30.11,West,264,0.0,3.0,91,0.00,,---,0.00,VWS V14.01,2013-02-17 12:00:00,
2013-02-17 07:05:00,15.5,13.4,30.11,West,272,0.0,2.0,91,0.00,,---,0.00,VWS V14.01,2013-02-17 12:05:00,
2013-02-17 07:10:00,15.5,13.4,30.11,West,264,0.0,3.0,91,0.00,,---,0.00,VWS V14.01,2013-02-17 12:10:00,
2013-02-17 07:15:00,15.5,13.1,30.11,WNW,290,0.0,0.0,90,0.00,,---,0.00,VWS V14.01,2013-02-17 12:15:00,
2013-02-17 07:20:00,15.6,13.2,30.11,NW,310,0.0,0.0,90,0.00,,---,0.00,VWS V14.01,2013-02-17 12:20:00,
2013-02-17 07:25:00,15.6,13.4,30.11,West,269,0.0,0.0,91,0.00,,---,0.00,VWS V14.01,2013-02-17 12:25:00,
2013-02-17 07:30:00,15.6,13.4,30.11,West,269,0.0,0.0,91,0.00,,---,0.00,VWS V14.01,2013-02-17 12:30:00,
2013-02-17 07:35:00,15.6,13.4,30.12,West,269,0.0,2.0,91,0.00,,---,0.00,VWS V14.01,2013-02-17 12:35:00,
2013-02-17 07:40:00,15.6,13.4,30.12,West,275,0.0,0.0,91,0.00,,---,0.00,VWS V14.01,2013-02-17 12:40:00,
2013-02-17 07:45:00,15.6,13.7,30.12,WNW,288,0.0,1.0,92,0.00,,---,0.00,VWS V14.01,2013-02-17 12:45:00,
2013-02-17 07:50:00,15.7,13.8,30.12,WNW,290,0.0,3.0,92,0.00,,---,0.00,VWS V14.01,2013-02-17 12:50:00,
2013-02-17 07:55:00,15.7,13.8,30.12,WNW,288,0.0,2.0,92,0.00,,---,0.00,VWS V14.01,2013-02-17 12:55:00,
2013-02-17 08:00:00,15.9,14.2,30.12,WSW,257,1.0,4.0,93,0.00,,---,0.00,VWS V14.01,2013-02-17 13:00:00,
2013-02-17 08:05:00,16.0,14.3,30.13,East,84,0.0,2.0,93,0.00,,---,0.00,VWS V14.01,2013-02-17 13:05:00,
2013-02-17 08:10:00,16.2,14.3,30.13,West,263,3.0,4.0,92,0.00,,---,0.00,VWS V14.01,2013-02-17 13:10:00,
2013-02-17 08:15:00,16.2,14.3,30.13,WNW,294,0.0,5.0,92,0.00,,---,0.00,VWS V14.01,2013-02-17 13:15:00,
2013-02-17 08:20:00,16.3,14.4,30.14,WNW,294,1.0,4.0,92,0.00,,---,0.00,VWS V14.01,2013-02-17 13:20:00,
2013-02-17 08:25:00,16.4,14.5,30.14,WSW,240,3.0,5.0,92,0.00,,---,0.00,VWS V14.01,2013-02-17 13:25:00,
2013-02-17 08:30:00,16.3,14.4,30.13,WNW,293,0.0,5.0,92,0.00,,---,0.00,VWS V14.01,2013-02-17 13:30:00,
2013-02-17 08:31:00,16.4,14.5,30.14,WNW,288,2.0,8.0,92,0.00,,---,0.00,VWS V14.01,2013-02-17 13:31:00,
2013-02-17 08:35:00,16.3,14.4,30.13,West,268,2.0,4.0,92,0.00,,---,0.00,VWS V14.01,2013-02-17 13:35:00,
2013-02-17 08:36:00,16.4,14.2,30.15,NNE,25,0.0,10.0,91,0.00,,---,0.00,VWS V14.01,2013-02-17 13:36:00,
2013-02-17 08:40:00,16.4,14.5,30.14,West,261,2.0,5.0,92,0.00,,---,0.00,VWS V14.01,2013-02-17 13:40:00,
2013-02-17 08:41:00,16.5,14.3,30.15,WNW,300,0.0,2.0,91,0.00,,---,0.00,VWS V14.01,2013-02-17 13:41:00,
2013-02-17 08:45:00,16.4,14.5,30.14,NNE,17,0.0,8.0,92,0.00,,---,0.00,VWS V14.01,2013-02-17 13:45:00,
2013-02-17 08:46:00,16.5,14.3,30.14,SW,224,1.0,4.0,91,0.00,,---,0.00,VWS V14.01,2013-02-17 13:46:00,
2013-02-17 08:50:00,16.5,14.3,30.15,WSW,240,2.0,10.0,91,0.00,,---,0.00,VWS V14.01,2013-02-17 13:50:00,
2013-02-17 08:51:00,16.5,14.3,30.15,West,259,3.0,5.0,91,0.00,,---,0.00,VWS V14.01,2013-02-17 13:51:00,
2013-02-17 08:55:00,16.5,14.3,30.14,West,260,2.0,3.0,91,0.00,,---,0.00,VWS V14.01,2013-02-17 13:55:00,
2013-02-17 08:56:00,16.5,14.3,30.15,SW,215,0.0,6.0,91,0.00,,---,0.00,VWS V14.01,2013-02-17 13:56:00,
2013-02-17 09:00:00,16.5,14.3,30.15,WSW,256,0.0,5.0,91,0.00,,---,0.00,VWS V14.01,2013-02-17 14:00:00,
2013-02-17 09:01:00,16.5,14.3,30.15,NW,325,3.0,5.0,91,0.00,,---,0.00,VWS V14.01,2013-02-17 14:01:00,
2013-02-17 09:05:00,16.5,14.3,30.15,WSW,256,2.0,7.0,91,0.00,,---,0.00,VWS V14.01,2013-02-17 14:05:00,
2013-02-17 09:06:00,16.5,14.1,30.16,WNW,286,2.0,7.0,90,0.00,,---,0.00,VWS V14.01,2013-02-17 14:06:00,
2013-02-17 09:10:00,16.5,14.3,30.15,WSW,242,3.0,6.0,91,0.00,,---,0.00,VWS V14.01,2013-02-17 14:10:00,
2013-02-17 09:11:00,16.5,14.1,30.15,WSW,244,2.0,6.0,90,0.00,,---,0.00,VWS V14.01,2013-02-17 14:11:00,
2013-02-17 09:15:00,16.6,14.2,30.16,West,261,4.0,6.0,90,0.00,,---,0.00,VWS V14.01,2013-02-17 14:15:00,
2013-02-17 09:16:00,16.4,13.7,30.16,NE,49,0.0,4.0,89,0.00,,---,0.00,VWS V14.01,2013-02-17 14:16:00,
2013-02-17 09:20:00,16.5,14.1,30.16,West,272,2.0,7.0,90,0.00,,---,0.00,VWS V14.01,2013-02-17 14:20:00,
2013-02-17 09:21:00,16.4,13.7,30.16,West,272,1.0,6.0,89,0.00,,---,0.00,VWS V14.01,2013-02-17 14:21:00,
2013-02-17 09:25:00,16.4,14.0,30.15,WSW,252,4.0,7.0,90,0.00,,---,0.00,VWS V14.01,2013-02-17 14:25:00,
2013-02-17 09:26:00,16.4,13.7,30.16,SW,225,1.0,5.0,89,0.00,,---,0.00,VWS V14.01,2013-02-17 14:26:00,
2013-02-17 09:30:00,16.4,13.7,30.16,WSW,242,5.0,5.0,89,0.00,,---,0.00,VWS V14.01,2013-02-17 14:30:00,
2013-02-17 09:31:00,16.7,14.0,30.16,WSW,244,5.0,9.0,89,0.00,,---,0.00,VWS V14.01,2013-02-17 14:31:00,
2013-02-17 09:35:00,16.4,13.7,30.16,West,260,0.0,6.0,89,0.00,,---,0.00,VWS V14.01,2013-02-17 14:35:00,
2013-02-17 09:36:00,17.0,14.3,30.16,WSW,250,3.0,9.0,89,0.00,,---,0.00,VWS V14.01,2013-02-17 14:36:00,
2013-02-17 09:40:00,16.5,13.8,30.16,WSW,254,4.0,5.0,89,0.00,,---,0.00,VWS V14.01,2013-02-17 14:40:00,
2013-02-17 09:41:00,17.3,14.6,30.16,WSW,250,4.0,6.0,89,0.00,,---,0.00,VWS V14.01,2013-02-17 14:41:00,
2013-02-17 09:45:00,16.8,14.1,30.16,West,259,2.0,9.0,89,0.00,,---,0.00,VWS V14.01,2013-02-17 14:45:00,
2013-02-17 09:46:00,17.4,14.5,30.17,WNW,303,0.0,7.0,88,0.00,,---,0.00,VWS V14.01,2013-02-17 14:46:00,
2013-02-17 09:50:00,17.1,14.4,30.16,NNW,347,0.0,9.0,89,0.00,,---,0.00,VWS V14.01,2013-02-17 14:50:00,
2013-02-17 09:51:00,17.7,14.8,30.16,WSW,252,6.0,6.0,88,0.00,,---,0.00,VWS V14.01,2013-02-17 14:51:00,
2013-02-17 09:55:00,17.5,14.6,30.17,WSW,245,6.0,9.0,88,0.00,,---,0.00,VWS V14.01,2013-02-17 14:55:00,
2013-02-17 09:56:00,17.9,14.7,30.17,WSW,254,4.0,11.0,87,0.00,,---,0.00,VWS V14.01,2013-02-17 14:56:00,
2013-02-17 10:00:00,17.5,14.3,30.17,ESE,102,1.0,7.0,87,0.00,,---,0.00,VWS V14.01,2013-02-17 15:00:00,
2013-02-17 10:01:00,17.9,14.7,30.17,West,260,4.0,14.0,87,0.00,,---,0.00,VWS V14.01,2013-02-17 15:01:00,
2013-02-17 10:05:00,17.8,14.6,30.17,WSW,238,7.0,12.0,87,0.00,,---,0.00,VWS V14.01,2013-02-17 15:05:00,
2013-02-17 10:06:00,18.0,14.8,30.17,West,261,4.0,11.0,87,0.00,,---,0.00,VWS V14.01,2013-02-17 15:06:00,
2013-02-17 10:10:00,17.9,14.7,30.17,West,265,9.0,11.0,87,0.00,,---,0.00,VWS V14.01,2013-02-17 15:10:00,
2013-02-17 10:11:00,18.3,14.8,30.17,West,263,3.0,9.0,86,0.00,,---,0.00,VWS V14.01,2013-02-17 15:11:00,
2013-02-17 10:15:00,17.9,14.7,30.17,WSW,238,5.0,14.0,87,0.00,,---,0.00,VWS V14.01,2013-02-17 15:15:00,
2013-02-17 10:16:00,18.2,14.5,30.17,WSW,244,8.0,11.0,85,0.00,,---,0.00,VWS V14.01,2013-02-17 15:16:00,
2013-02-17 10:20:00,18.1,14.9,30.17,WSW,250,0.0,11.0,87,0.00,,---,0.00,VWS V14.01,2013-02-17 15:20:00,
2013-02-17 10:21:00,18.3,14.6,30.18,SW,232,2.0,10.0,85,0.00,,---,0.00,VWS V14.01,2013-02-17 15:21:00,
2013-02-17 10:25:00,18.3,14.8,30.18,WSW,253,5.0,11.0,86,0.00,,---,0.00,VWS V14.01,2013-02-17 15:25:00,
2013-02-17 10:26:00,18.4,14.4,30.18,WSW,258,5.0,10.0,84,0.00,,---,0.00,VWS V14.01,2013-02-17 15:26:00,
2013-02-17 10:30:00,18.2,14.5,30.17,West,259,0.0,11.0,85,0.00,,---,0.00,VWS V14.01,2013-02-17 15:30:00,
2013-02-17 10:32:00,18.5,14.2,30.18,WSW,252,6.0,11.0,83,0.00,,---,0.00,VWS V14.01,2013-02-17 15:32:00,
2013-02-17 10:35:00,18.4,14.6,30.18,West,276,1.0,10.0,85,0.00,,---,0.00,VWS V14.01,2013-02-17 15:35:00,
2013-02-17 10:37:00,19.0,14.7,30.18,WSW,242,4.0,9.0,83,0.00,,---,0.00,VWS V14.01,2013-02-17 15:37:00,
2013-02-17 10:40:00,18.4,14.4,30.18,West,262,8.0,15.0,84,0.00,,---,0.00,VWS V14.01,2013-02-17 15:40:00,
2013-02-17 10:42:00,19.3,14.4,30.18,WNW,295,3.0,14.0,81,0.00,,---,0.00,VWS V14.01,2013-02-17 15:42:00,
2013-02-17 10:45:00,18.6,14.3,30.18,WSW,238,2.0,11.0,83,0.00,,---,0.00,VWS V14.01,2013-02-17 15:45:00,
2013-02-17 10:47:00,19.3,14.7,30.18,WSW,252,4.0,11.0,82,0.00,,---,0.00,VWS V14.01,2013-02-17 15:47:00,
2013-02-17 10:50:00,19.1,14.8,30.18,NW,306,3.0,9.0,83,0.00,,---,0.00,VWS V14.01,2013-02-17 15:50:00,
2013-02-17 10:52:00,19.4,14.8,30.18,WSW,252,6.0,9.0,82,0.00,,---,0.00,VWS V14.01,2013-02-17 15:52:00,
2013-02-17 10:55:00,19.3,14.7,30.18,West,266,10.0,14.0,82,0.00,,---,0.00,VWS V14.01,2013-02-17 15:55:00,
2013-02-17 10:57:00,19.7,14.8,30.19,WSW,248,10.0,15.0,81,0.00,,---,0.00,VWS V14.01,2013-02-17 15:57:00,
2013-02-17 11:00:00,19.3,14.7,30.19,WSW,242,5.0,11.0,82,0.00,,---,0.00,VWS V14.01,2013-02-17 16:00:00,
2013-02-17 11:02:00,19.7,14.5,30.19,WSW,256,0.0,14.0,80,0.00,,---,0.00,VWS V14.01,2013-02-17 16:02:00,
2013-02-17 11:05:00,19.5,14.9,30.18,WSW,242,3.0,12.0,82,0.00,,---,0.00,VWS V14.01,2013-02-17 16:05:00,
2013-02-17 11:07:00,19.7,14.5,30.19,WSW,238,6.0,18.0,80,0.00,,---,0.00,VWS V14.01,2013-02-17 16:07:00,
2013-02-17 11:10:00,19.7,14.8,30.19,WSW,257,1.0,15.0,81,0.00,,---,0.00,VWS V14.01,2013-02-17 16:10:00,
2013-02-17 11:12:00,19.9,14.7,30.19,WSW,240,9.0,11.0,80,0.00,,---,0.00,VWS V14.01,2013-02-17 16:12:00,
2013-02-17 11:15:00,19.7,14.5,30.19,West,278,3.0,14.0,80,0.00,,---,0.00,VWS V14.01,2013-02-17 16:15:00,
2013-02-17 11:17:00,20.0,14.3,30.19,SSW,210,4.0,15.0,78,0.00,,---,0.00,VWS V14.01,2013-02-17 16:17:00,
2013-02-17 11:20:00,19.8,14.6,30.19,WSW,237,4.0,18.0,80,0.00,,---,0.00,VWS V14.01,2013-02-17 16:20:00,
2013-02-17 11:22:00,20.3,14.6,30.19,WNW,291,1.0,10.0,78,0.00,,---,0.00,VWS V14.01,2013-02-17 16:22:00,
2013-02-17 11:25:00,20.0,14.6,30.19,WSW,248,8.0,11.0,79,0.00,,---,0.00,VWS V14.01,2013-02-17 16:25:00,
2013-02-17 11:27:00,20.4,14.6,30.19,West,265,7.0,10.0,78,0.00,,---,0.00,VWS V14.01,2013-02-17 16:27:00,
2013-02-17 11:30:00,20.2,14.7,30.19,WSW,240,4.0,15.0,79,0.00,,---,0.00,VWS V14.01,2013-02-17 16:30:00,
2013-02-17 11:32:00,20.3,14.6,30.19,WSW,242,0.0,9.0,78,0.00,,---,0.00,VWS V14.01,2013-02-17 16:32:00,
2013-02-17 11:35:00,20.2,14.4,30.19,West,269,3.0,10.0,78,0.00,,---,0.00,VWS V14.01,2013-02-17 16:35:00,
2013-02-17 11:37:00,20.6,14.6,30.20,WSW,241,9.0,9.0,77,0.00,,---,0.00,VWS V14.01,2013-02-17 16:37:00,
2013-02-17 11:40:00,20.4,14.6,30.19,West,269,3.0,10.0,78,0.00,,---,0.00,VWS V14.01,2013-02-17 16:40:00,
2013-02-17 11:42:00,21.0,14.3,30.20,SW,231,2.0,11.0,75,0.00,,---,0.00,VWS V14.01,2013-02-17 16:42:00,
2013-02-17 11:45:00,20.3,14.6,30.19,West,265,2.0,9.0,78,0.00,,---,0.00,VWS V14.01,2013-02-17 16:45:00,
2013-02-17 11:47:00,21.0,14.0,30.20,WSW,245,9.0,9.0,74,0.00,,---,0.00,VWS V14.01,2013-02-17 16:47:00,
2013-02-17 11:50:00,20.7,14.6,30.20,WSW,257,6.0,9.0,77,0.00,,---,0.00,VWS V14.01,2013-02-17 16:50:00,
2013-02-17 11:53:00,21.2,13.9,30.20,West,275,6.0,9.0,73,0.00,,---,0.00,VWS V14.01,2013-02-17 16:53:00,
2013-02-17 11:55:00,21.0,14.3,30.20,WSW,247,0.0,11.0,75,0.00,,---,0.00,VWS V14.01,2013-02-17 16:55:00,
2013-02-17 11:58:00,20.8,13.5,30.20,West,277,2.0,13.0,73,0.00,,---,0.00,VWS V14.01,2013-02-17 16:58:00,
2013-02-17 12:00:00,21.1,14.1,30.20,SSE,163,0.0,9.0,74,0.00,,---,0.00,VWS V14.01,2013-02-17 17:00:00,
2013-02-17 12:03:00,20.5,12.9,30.19,West,261,5.0,11.0,72,0.00,,---,0.00,VWS V14.01,2013-02-17 17:03:00,
2013-02-17 12:05:00,21.2,13.9,30.20,SW,233,2.0,9.0,73,0.00,,---,0.00,VWS V14.01,2013-02-17 17:05:00,
2013-02-17 12:08:00,20.9,13.6,30.19,West,267,4.0,11.0,73,0.00,,---,0.00,VWS V14.01,2013-02-17 17:08:00,
2013-02-17 12:10:00,20.8,13.5,30.20,SW,221,5.0,13.0,73,0.00,,---,0.00,VWS V14.01,2013-02-17 17:10:00,
2013-02-17 12:13:00,20.9,13.3,30.19,WSW,254,8.0,12.0,72,0.00,,---,0.00,VWS V14.01,2013-02-17 17:13:00,
2013-02-17 12:15:00,20.4,13.1,30.19,WSW,248,7.0,11.0,73,0.00,,---,0.00,VWS V14.01,2013-02-17 17:15:00,
2013-02-17 12:18:00,20.7,13.4,30.19,WSW,256,6.0,11.0,73,0.00,,---,0.00,VWS V14.01,2013-02-17 17:18:00,
2013-02-17 12:20:00,20.9,13.6,30.19,WSW,246,12.0,12.0,73,0.00,,---,0.00,VWS V14.01,2013-02-17 17:20:00,
2013-02-17 12:23:00,20.4,13.1,30.19,SW,217,3.0,18.0,73,0.00,,---,0.00,VWS V14.01,2013-02-17 17:23:00,
2013-02-17 12:25:00,20.9,13.3,30.19,WSW,252,8.0,12.0,72,0.00,,---,0.00,VWS V14.01,2013-02-17 17:25:00,
2013-02-17 12:28:00,21.1,13.8,30.19,WSW,250,6.0,13.0,73,0.00,,---,0.00,VWS V14.01,2013-02-17 17:28:00,
2013-02-17 12:30:00,20.6,13.3,30.19,West,279,4.0,11.0,73,0.00,,---,0.00,VWS V14.01,2013-02-17 17:30:00,
2013-02-17 12:33:00,21.7,13.4,30.19,West,269,2.0,16.0,70,0.00,,---,0.00,VWS V14.01,2013-02-17 17:33:00,
2013-02-17 12:35:00,20.4,13.1,30.19,WSW,248,2.0,18.0,73,0.00,,---,0.00,VWS V14.01,2013-02-17 17:35:00,
2013-02-17 12:38:00,21.8,13.5,30.20,West,277,11.0,12.0,70,0.00,,---,0.00,VWS V14.01,2013-02-17 17:38:00,
2013-02-17 12:40:00,21.1,13.8,30.19,West,261,12.0,13.0,73,0.00,,---,0.00,VWS V14.01,2013-02-17 17:40:00,
2013-02-17 12:43:00,21.1,14.7,30.20,West,267,10.0,19.0,76,0.00,,---,0.00,VWS V14.01,2013-02-17 17:43:00,
2013-02-17 12:45:00,21.7,13.4,30.19,West,274,5.0,16.0,70,0.00,,---,0.00,VWS V14.01,2013-02-17 17:45:00,
2013-02-17 12:48:00,20.0,14.6,30.19,WSW,248,7.0,10.0,79,0.00,,---,0.00,VWS V14.01,2013-02-17 17:48:00,
2013-02-17 12:50:00,21.8,13.5,30.20,West,277,11.0,12.0,70,0.00,,---,0.00,VWS V14.01,2013-02-17 17:50:00,
2013-02-17 12:53:00,19.7,14.0,30.20,SW,225,4.0,11.0,78,0.00,,---,0.00,VWS V14.01,2013-02-17 17:53:00,
2013-02-17 12:55:00,21.1,14.7,30.20,West,267,10.0,19.0,76,0.00,,---,0.00,VWS V14.01,2013-02-17 17:55:00,
2013-02-17 12:58:00,19.7,12.5,30.20,West,270,0.0,16.0,73,0.00,,---,0.00,VWS V14.01,2013-02-17 17:58:00,
2013-02-17 13:00:00,20.0,14.6,30.19,WSW,248,7.0,10.0,79,0.00,,---,0.00,VWS V14.01,2013-02-17 18:00:00,
2013-02-17 13:03:00,19.7,11.5,30.20,SW,234,9.0,20.0,70,0.00,,---,0.00,VWS V14.01,2013-02-17 18:03:00,
2013-02-17 13:05:00,19.7,14.0,30.20,SW,225,4.0,11.0,78,0.00,,---,0.00,VWS V14.01,2013-02-17 18:05:00,
2013-02-17 13:08:00,20.0,11.5,30.20,West,276,4.0,14.0,69,0.00,,---,0.00,VWS V14.01,2013-02-17 18:08:00,
2013-02-17 13:10:00,19.7,12.5,30.20,West,270,0.0,16.0,73,0.00,,---,0.00,VWS V14.01,2013-02-17 18:10:00,
2013-02-17 13:14:00,20.1,12.2,30.20,WSW,251,0.0,4.0,71,0.00,,---,0.00,VWS V14.01,2013-02-17 18:14:00,
2013-02-17 13:15:00,19.7,11.5,30.20,SW,234,9.0,20.0,70,0.00,,---,0.00,VWS V14.01,2013-02-17 18:15:00,
2013-02-17 13:19:00,20.4,12.2,30.20,NNW,334,0.0,0.0,70,0.00,,---,0.00,VWS V14.01,2013-02-17 18:19:00,
2013-02-17 13:20:00,20.0,11.5,30.20,West,276,4.0,14.0,69,0.00,,---,0.00,VWS V14.01,2013-02-17 18:20:00,
2013-02-17 13:24:00,20.5,11.6,30.20,West,263,4.0,10.0,68,0.00,,---,0.00,VWS V14.01,2013-02-17 18:24:00,
2013-02-17 13:25:00,20.1,12.2,30.20,WSW,251,4.0,14.0,71,0.00,,---,0.00,VWS V14.01,2013-02-17 18:25:00,
2013-02-17 13:29:00,20.7,12.1,30.20,WSW,254,5.0,5.0,69,0.00,,---,0.00,VWS V14.01,2013-02-17 18:29:00,
2013-02-17 13:30:00,20.4,12.2,30.20,NNW,339,0.0,9.0,70,0.00,,---,0.00,VWS V14.01,2013-02-17 18:30:00,
2013-02-17 13:34:00,21.0,12.8,30.20,WSW,238,3.0,9.0,70,0.00,,---,0.00,VWS V14.01,2013-02-17 18:34:00,
2013-02-17 13:35:00,20.5,11.6,30.20,WSW,241,5.0,13.0,68,0.00,,---,0.00,VWS V14.01,2013-02-17 18:35:00,
2013-02-17 13:39:00,21.1,12.9,30.20,SW,234,3.0,7.0,70,0.00,,---,0.00,VWS V14.01,2013-02-17 18:39:00,
2013-02-17 13:40:00,20.6,11.7,30.20,NW,323,2.0,11.0,68,0.00,,---,0.00,VWS V14.01,2013-02-17 18:40:00,
2013-02-17 13:44:00,20.6,12.4,30.20,SW,230,10.0,11.0,70,0.00,,---,0.00,VWS V14.01,2013-02-17 18:44:00,
2013-02-17 13:45:00,21.0,12.8,30.20,West,269,1.0,13.0,70,0.00,,---,0.00,VWS V14.01,2013-02-17 18:45:00,
2013-02-17 13:49:00,20.1,14.1,30.21,WSW,248,1.0,11.0,77,0.00,,---,0.00,VWS V14.01,2013-02-17 18:49:00,
2013-02-17 13:50:00,21.1,12.9,30.20,SW,235,5.0,14.0,70,0.00,,---,0.00,VWS V14.01,2013-02-17 18:50:00,
2013-02-17 13:54:00,19.9,14.7,30.21,West,275,1.0,7.0,80,0.00,,---,0.00,VWS V14.01,2013-02-17 18:54:00,
2013-02-17 13:55:00,20.7,12.5,30.20,West,267,11.0,17.0,70,0.00,,---,0.00,VWS V14.01,2013-02-17 18:55:00,
2013-02-17 13:59:00,20.3,14.3,30.21,WSW,240,12.0,13.0,77,0.00,,---,0.00,VWS V14.01,2013-02-17 18:59:00,
2013-02-17 14:00:00,20.2,13.9,30.21,WSW,244,3.0,14.0,76,0.00,,---,0.00,VWS V14.01,2013-02-17 19:00:00,
2013-02-17 14:04:00,20.6,13.9,30.21,West,273,3.0,10.0,75,0.00,,---,0.00,VWS V14.01,2013-02-17 19:04:00,
2013-02-17 14:05:00,19.8,14.6,30.21,East,84,2.0,13.0,80,0.00,,---,0.00,VWS V14.01,2013-02-17 19:05:00,
2013-02-17 14:09:00,20.2,15.6,30.20,SW,232,3.0,6.0,82,0.00,,---,0.00,VWS V14.01,2013-02-17 19:09:00,
2013-02-17 14:10:00,20.2,14.2,30.21,WSW,248,4.0,12.0,77,0.00,,---,0.00,VWS V14.01,2013-02-17 19:10:00,
2013-02-17 14:14:00,20.3,15.4,30.20,SW,224,1.0,12.0,81,0.00,,---,0.00,VWS V14.01,2013-02-17 19:14:00,
2013-02-17 14:15:00,20.6,13.6,30.21,West,260,7.0,13.0,74,0.00,,---,0.00,VWS V14.01,2013-02-17 19:15:00,
2013-02-17 14:19:00,20.9,15.1,30.20,WSW,253,5.0,5.0,78,0.00,,---,0.00,VWS V14.01,2013-02-17 19:19:00,
2013-02-17 14:20:00,20.3,15.7,30.21,WSW,250,6.0,12.0,82,0.00,,---,0.00,VWS V14.01,2013-02-17 19:20:00,
2013-02-17 14:24:00,21.4,12.8,30.20,West,263,14.0,24.0,69,0.00,,---,0.00,VWS V14.01,2013-02-17 19:24:00,
2013-02-17 14:25:00,20.2,15.6,30.20,West,279,2.0,7.0,82,0.00,,---,0.00,VWS V14.01,2013-02-17 19:25:00,
2013-02-17 14:30:00,21.6,11.7,30.21,WSW,250,12.0,12.0,65,0.00,,---,0.00,VWS V14.01,2013-02-17 19:30:00,
2013-02-17 14:35:00,21.1,10.8,30.21,WSW,242,3.0,10.0,64,0.00,,---,0.00,VWS V14.01,2013-02-17 19:35:00,
2013-02-17 14:40:00,21.3,11.4,30.21,WSW,242,6.0,6.0,65,0.00,,---,0.00,VWS V14.01,2013-02-17 19:40:00,
2013-02-17 14:45:00,21.7,10.0,30.21,West,263,4.0,11.0,60,0.00,,---,0.00,VWS V14.01,2013-02-17 19:45:00,
2013-02-17 14:50:00,21.9,10.5,30.21,West,267,7.0,12.0,61,0.00,,---,0.00,VWS V14.01,2013-02-17 19:50:00,
2013-02-17 14:55:00,21.9,10.9,30.21,WSW,252,5.0,7.0,62,0.00,,---,0.00,VWS V14.01,2013-02-17 19:55:00,
2013-02-17 15:00:00,21.9,10.5,30.21,West,260,10.0,12.0,61,0.00,,---,0.00,VWS V14.01,2013-02-17 20:00:00,
2013-02-17 15:05:00,21.7,10.3,30.21,West,259,18.0,18.0,61,0.00,,---,0.00,VWS V14.01,2013-02-17 20:05:00,
2013-02-17 15:10:00,21.8,10.4,30.21,SW,215,0.0,11.0,61,0.00,,---,0.00,VWS V14.01,2013-02-17 20:10:00,
2013-02-17 15:15:00,21.7,10.0,30.22,SW,232,7.0,21.0,60,0.00,,---,0.00,VWS V14.01,2013-02-17 20:15:00,
2013-02-17 15:20:00,21.4,9.7,30.22,West,261,15.0,32.0,60,0.00,,---,0.00,VWS V14.01,2013-02-17 20:20:00,
2013-02-17 15:25:00,21.5,10.5,30.22,West,280,1.0,11.0,62,0.00,,---,0.00,VWS V14.01,2013-02-17 20:25:00,
2013-02-17 15:30:00,21.8,10.4,30.22,WSW,254,2.0,10.0,61,0.00,,---,0.00,VWS V14.01,2013-02-17 20:30:00,
2013-02-17 15:35:00,21.6,11.0,30.22,SW,219,0.0,13.0,63,0.00,,---,0.00,VWS V14.01,2013-02-17 20:35:00,
2013-02-17 15:40:00,21.2,12.0,30.23,West,263,11.0,14.0,67,0.00,,---,0.00,VWS V14.01,2013-02-17 20:40:00,
2013-02-17 15:45:00,20.8,11.9,30.23,WSW,246,7.0,11.0,68,0.00,,---,0.00,VWS V14.01,2013-02-17 20:45:00,
2013-02-17 15:50:00,20.3,11.4,30.23,West,273,4.0,10.0,68,0.00,,---,0.00,VWS V14.01,2013-02-17 20:50:00,
2013-02-17 15:55:00,20.3,11.1,30.23,WSW,240,11.0,14.0,67,0.00,,---,0.00,VWS V14.01,2013-02-17 20:55:00,
2013-02-17 16:00:00,20.4,11.9,30.23,West,262,12.0,15.0,69,0.00,,---,0.00,VWS V14.01,2013-02-17 21:00:00,
2013-02-17 16:05:00,20.3,11.1,30.23,WSW,244,11.0,11.0,67,0.00,,---,0.00,VWS V14.01,2013-02-17 21:05:00,
2013-02-17 16:06:00,20.0,13.1,30.23,WSW,254,0.0,4.0,74,0.00,,---,0.00,VWS V14.01,2013-02-17 21:06:00,
2013-02-17 16:10:00,20.3,11.4,30.23,WSW,258,10.0,14.0,68,0.00,,---,0.00,VWS V14.01,2013-02-17 21:10:00,
2013-02-17 16:11:00,19.9,11.4,30.24,SW,227,1.0,12.0,69,0.00,,---,0.00,VWS V14.01,2013-02-17 21:11:00,
2013-02-17 16:15:00,20.1,12.9,30.24,SW,236,0.0,19.0,73,0.00,,---,0.00,VWS V14.01,2013-02-17 21:15:00,
2013-02-17 16:16:00,19.8,11.0,30.24,WSW,250,6.0,12.0,68,0.00,,---,0.00,VWS V14.01,2013-02-17 21:16:00,
2013-02-17 16:20:00,19.9,12.0,30.23,WSW,242,9.0,11.0,71,0.00,,---,0.00,VWS V14.01,2013-02-17 21:20:00,
2013-02-17 16:21:00,19.9,12.0,30.24,WSW,238,5.0,14.0,71,0.00,,---,0.00,VWS V14.01,2013-02-17 21:21:00,
2013-02-17 16:25:00,19.9,11.4,30.24,West,263,6.0,12.0,69,0.00,,---,0.00,VWS V14.01,2013-02-17 21:25:00,
2013-02-17 16:26:00,19.7,12.8,30.24,WSW,253,2.0,9.0,74,0.00,,---,0.00,VWS V14.01,2013-02-17 21:26:00,
2013-02-17 16:30:00,19.9,11.4,30.24,West,276,4.0,12.0,69,0.00,,---,0.00,VWS V14.01,2013-02-17 21:30:00,
2013-02-17 16:31:00,19.6,13.0,30.25,WSW,237,11.0,11.0,75,0.00,,---,0.00,VWS V14.01,2013-02-17 21:31:00,
2013-02-17 16:35:00,19.7,12.1,30.24,WSW,238,4.0,14.0,72,0.00,,---,0.00,VWS V14.01,2013-02-17 21:35:00,
2013-02-17 16:36:00,19.6,12.7,30.24,SW,234,0.0,10.0,74,0.00,,---,0.00,VWS V14.01,2013-02-17 21:36:00,
2013-02-17 16:40:00,19.7,13.1,30.24,West,280,0.0,9.0,75,0.00,,---,0.00,VWS V14.01,2013-02-17 21:40:00,
2013-02-17 16:41:00,19.6,11.7,30.25,West,276,5.0,9.0,71,0.00,,---,0.00,VWS V14.01,2013-02-17 21:41:00,
2013-02-17 16:45:00,19.6,13.0,30.25,WSW,248,1.0,11.0,75,0.00,,---,0.00,VWS V14.01,2013-02-17 21:45:00,
2013-02-17 16:46:00,19.7,10.9,30.25,SW,236,3.0,16.0,68,0.00,,---,0.00,VWS V14.01,2013-02-17 21:46:00,
2013-02-17 16:50:00,19.6,12.4,30.24,WSW,242,9.0,10.0,73,0.00,,---,0.00,VWS V14.01,2013-02-17 21:50:00,
2013-02-17 16:51:00,19.7,10.2,30.25,WSW,237,4.0,12.0,66,0.00,,---,0.00,VWS V14.01,2013-02-17 21:51:00,
2013-02-17 16:55:00,19.7,11.2,30.25,WSW,242,16.0,17.0,69,0.00,,---,0.00,VWS V14.01,2013-02-17 21:55:00,
2013-02-17 16:56:00,19.7,10.2,30.25,WSW,254,0.0,9.0,66,0.00,,---,0.00,VWS V14.01,2013-02-17 21:56:00,
2013-02-17 17:00:00,19.7,11.2,30.25,WSW,241,3.0,16.0,69,0.00,,---,0.00,VWS V14.01,2013-02-17 22:00:00,
2013-02-17 17:01:00,19.7,10.2,30.25,West,261,2.0,8.0,66,0.00,,---,0.00,VWS V14.01,2013-02-17 22:01:00,
2013-02-17 17:05:00,19.7,10.2,30.25,WSW,242,0.0,12.0,66,0.00,,---,0.00,VWS V14.01,2013-02-17 22:05:00,
2013-02-17 17:06:00,19.8,9.9,30.25,West,269,3.0,6.0,65,0.00,,---,0.00,VWS V14.01,2013-02-17 22:06:00,
2013-02-17 17:10:00,19.7,10.5,30.25,West,269,0.0,9.0,67,0.00,,---,0.00,VWS V14.01,2013-02-17 22:10:00,
2013-02-17 17:11:00,19.9,9.4,30.26,West,265,5.0,6.0,63,0.00,,---,0.00,VWS V14.01,2013-02-17 22:11:00,
2013-02-17 17:15:00,19.8,10.3,30.25,West,263,3.0,8.0,66,0.00,,---,0.00,VWS V14.01,2013-02-17 22:15:00,
2013-02-17 17:16:00,20.0,9.1,30.26,WSW,242,6.0,7.0,62,0.00,,---,0.00,VWS V14.01,2013-02-17 22:16:00,
2013-02-17 17:20:00,19.9,10.1,30.25,West,259,6.0,6.0,65,0.00,,---,0.00,VWS V14.01,2013-02-17 22:20:00,
2013-02-17 17:21:00,20.0,8.4,30.26,West,259,12.0,12.0,60,0.00,,---,0.00,VWS V14.01,2013-02-17 22:21:00,
2013-02-17 17:25:00,19.9,9.0,30.26,West,275,0.0,15.0,62,0.00,,---,0.00,VWS V14.01,2013-02-17 22:25:00,
2013-02-17 17:26:00,19.9,8.3,30.26,WSW,244,8.0,11.0,60,0.00,,---,0.00,VWS V14.01,2013-02-17 22:26:00,
2013-02-17 17:30:00,20.0,8.7,30.26,WSW,252,4.0,9.0,61,0.00,,---,0.00,VWS V14.01,2013-02-17 22:30:00,
2013-02-17 17:32:00,19.8,8.2,30.27,SSW,213,0.0,9.0,60,0.00,,---,0.00,VWS V14.01,2013-02-17 22:32:00,
2013-02-17 17:35:00,19.9,8.3,30.26,West,271,1.0,12.0,60,0.00,,---,0.00,VWS V14.01,2013-02-17 22:35:00,
2013-02-17 17:37:00,19.7,8.1,30.27,SSW,195,4.0,10.0,60,0.00,,---,0.00,VWS V14.01,2013-02-17 22:37:00,
2013-02-17 17:40:00,19.8,8.2,30.26,WSW,253,2.0,12.0,60,0.00,,---,0.00,VWS V14.01,2013-02-17 22:40:00,
2013-02-17 17:42:00,19.7,8.1,30.27,WSW,242,0.0,7.0,60,0.00,,---,0.00,VWS V14.01,2013-02-17 22:42:00,
2013-02-17 17:45:00,19.8,7.8,30.27,WSW,253,6.0,9.0,59,0.00,,---,0.00,VWS V14.01,2013-02-17 22:45:00,
2013-02-17 17:47:00,19.7,7.7,30.27,WSW,244,6.0,12.0,59,0.00,,---,0.00,VWS V14.01,2013-02-17 22:47:00,
2013-02-17 17:50:00,19.7,8.1,30.27,West,260,4.0,10.0,60,0.00,,---,0.00,VWS V14.01,2013-02-17 22:50:00,
2013-02-17 17:52:00,19.7,7.7,30.28,West,269,0.0,10.0,59,0.00,,---,0.00,VWS V14.01,2013-02-17 22:52:00,
2013-02-17 17:55:00,19.7,7.7,30.27,WSW,249,5.0,11.0,59,0.00,,---,0.00,VWS V14.01,2013-02-17 22:55:00,
2013-02-17 17:57:00,19.7,7.7,30.28,WNW,287,1.0,10.0,59,0.00,,---,0.00,VWS V14.01,2013-02-17 22:57:00,
2013-02-17 18:00:00,19.7,7.7,30.28,WSW,246,6.0,12.0,59,0.00,,---,0.00,VWS V14.01,2013-02-17 23:00:00,
2013-02-17 18:02:00,19.5,7.9,30.28,West,261,9.0,11.0,60,0.00,,---,0.00,VWS V14.01,2013-02-17 23:02:00,
2013-02-17 18:05:00,19.7,7.7,30.28,West,267,6.0,10.0,59,0.00,,---,0.00,VWS V14.01,2013-02-17 23:05:00,
2013-02-17 18:07:00,19.4,7.8,30.28,SSW,198,5.0,12.0,60,0.00,,---,0.00,VWS V14.01,2013-02-17 23:07:00,
2013-02-17 18:10:00,19.7,8.1,30.28,WSW,244,0.0,10.0,60,0.00,,---,0.00,VWS V14.01,2013-02-17 23:10:00,
2013-02-17 18:12:00,19.3,7.7,30.29,West,260,6.0,9.0,60,0.00,,---,0.00,VWS V14.01,2013-02-17 23:12:00,
2013-02-17 18:15:00,19.5,7.9,30.28,SSW,211,4.0,11.0,60,0.00,,---,0.00,VWS V14.01,2013-02-17 23:15:00,
2013-02-17 18:17:00,19.2,8.0,30.29,West,267,4.0,8.0,61,0.00,,---,0.00,VWS V14.01,2013-02-17 23:17:00,
2013-02-17 18:20:00,19.4,7.8,30.28,South,186,0.0,12.0,60,0.00,,---,0.00,VWS V14.01,2013-02-17 23:20:00,
2013-02-17 18:22:00,19.1,7.9,30.30,West,265,4.0,6.0,61,0.00,,---,0.00,VWS V14.01,2013-02-17 23:22:00,
2013-02-17 18:25:00,19.3,7.7,30.29,West,268,5.0,9.0,60,0.00,,---,0.00,VWS V14.01,2013-02-17 23:25:00,
2013-02-17 18:27:00,19.0,7.8,30.30,WSW,238,4.0,7.0,61,0.00,,---,0.00,VWS V14.01,2013-02-17 23:27:00,
2013-02-17 18:30:00,19.2,7.6,30.29,WSW,256,1.0,8.0,60,0.00,,---,0.00,VWS V14.01,2013-02-17 23:30:00,
2013-02-17 18:32:00,19.0,7.8,30.30,WSW,244,7.0,7.0,61,0.00,,---,0.00,VWS V14.01,2013-02-17 23:32:00,
2013-02-17 18:35:00,19.1,7.9,30.30,West,281,3.0,6.0,61,0.00,,---,0.00,VWS V14.01,2013-02-17 23:35:00,
2013-02-17 18:37:00,18.9,7.7,30.30,West,279,0.0,9.0,61,0.00,,---,0.00,VWS V14.01,2013-02-17 23:37:00,
2013-02-17 18:40:00,19.0,8.1,30.30,WSW,240,0.0,7.0,62,0.00,,---,0.00,VWS V14.01,2013-02-17 23:40:00,
2013-02-17 18:42:00,18.9,7.7,30.30,WSW,248,2.0,12.0,61,0.00,,---,0.00,VWS V14.01,2013-02-17 23:42:00,
2013-02-17 18:45:00,19.0,7.8,30.30,SW,234,9.0,9.0,61,0.00,,---,0.00,VWS V14.01,2013-02-17 23:45:00,
2013-02-17 18:48:00,18.9,8.1,30.31,WNW,287,0.0,4.0,62,0.00,,---,0.00,VWS V14.01,2013-02-17 23:48:00,
2013-02-17 18:50:00,18.9,7.7,30.30,WSW,248,7.0,10.0,61,0.00,,---,0.00,VWS V14.01,2013-02-17 23:50:00,
2013-02-17 18:53:00,18.8,7.9,30.31,West,263,0.0,4.0,62,0.00,,---,0.00,VWS V14.01,2013-02-17 23:53:00,
2013-02-17 18:55:00,18.9,7.7,30.30,WSW,246,4.0,12.0,61,0.00,,---,0.00,VWS V14.01,2013-02-17 23:55:00,
2013-02-17 18:58:00,18.8,7.9,30.31,West,271,4.0,6.0,62,0.00,,---,0.00,VWS V14.01,2013-02-17 23:58:00,
2013-02-17 19:00:00,18.9,8.1,30.31,WNW,285,0.0,4.0,62,0.00,,---,0.00,VWS V14.01,2013-02-18 00:00:00,
2013-02-17 19:03:00,18.8,8.3,30.31,WSW,251,0.0,6.0,63,0.00,,---,0.00,VWS V14.01,2013-02-18 00:03:00,
2013-02-17 19:05:00,18.8,7.9,30.31,WSW,255,6.0,6.0,62,0.00,,---,0.00,VWS V14.01,2013-02-18 00:05:00,
2013-02-17 19:08:00,18.8,8.3,30.31,West,263,2.0,10.0,63,0.00,,---,0.00,VWS V14.01,2013-02-18 00:08:00,
2013-02-17 19:10:00,18.8,7.9,30.31,WSW,247,0.0,6.0,62,0.00,,---,0.00,VWS V14.01,2013-02-18 00:10:00,
2013-02-17 19:13:00,18.8,7.9,30.32,West,259,0.0,8.0,62,0.00,,---,0.00,VWS V14.01,2013-02-18 00:13:00,
2013-02-17 19:15:00,18.8,8.3,30.31,WSW,252,3.0,6.0,63,0.00,,---,0.00,VWS V14.01,2013-02-18 00:15:00,
2013-02-17 19:18:00,18.7,8.2,30.32,WNW,288,0.0,5.0,63,0.00,,---,0.00,VWS V14.01,2013-02-18 00:18:00,
2013-02-17 19:20:00,18.8,8.3,30.31,West,259,6.0,10.0,63,0.00,,---,0.00,VWS V14.01,2013-02-18 00:20:00,
2013-02-17 19:23:00,18.7,8.2,30.32,WSW,248,3.0,5.0,63,0.00,,---,0.00,VWS V14.01,2013-02-18 00:23:00,
2013-02-17 19:25:00,18.7,7.9,30.32,WNW,283,2.0,8.0,62,0.00,,---,0.00,VWS V14.01,2013-02-18 00:25:00,
2013-02-17 19:28:00,18.7,7.9,30.32,WSW,246,5.0,9.0,62,0.00,,---,0.00,VWS V14.01,2013-02-18 00:28:00,
2013-02-17 19:30:00,18.7,7.9,30.32,West,281,4.0,5.0,62,0.00,,---,0.00,VWS V14.01,2013-02-18 00:30:00,
2013-02-17 19:33:00,18.6,7.8,30.32,NNE,24,4.0,14.0,62,0.00,,---,0.00,VWS V14.01,2013-02-18 00:33:00,
2013-02-17 19:35:00,18.7,8.2,30.32,WSW,256,3.0,5.0,63,0.00,,---,0.00,VWS V14.01,2013-02-18 00:35:00,
2013-02-17 19:38:00,18.6,7.8,30.33,West,275,1.0,12.0,62,0.00,,---,0.00,VWS V14.01,2013-02-18 00:38:00,
2013-02-17 19:40:00,18.7,7.9,30.32,WSW,246,6.0,9.0,62,0.00,,---,0.00,VWS V14.01,2013-02-18 00:40:00,
2013-02-17 19:43:00,18.6,7.8,30.33,NW,319,0.0,0.0,62,0.00,,---,0.00,VWS V14.01,2013-02-18 00:43:00,
2013-02-17 19:45:00,18.6,7.8,30.32,NNE,24,0.0,14.0,62,0.00,,---,0.00,VWS V14.01,2013-02-18 00:45:00,
2013-02-17 19:48:00,18.5,7.3,30.33,NW,315,4.0,5.0,61,0.00,,---,0.00,VWS V14.01,2013-02-18 00:48:00,
2013-02-17 19:50:00,18.6,7.8,30.33,West,275,2.0,12.0,62,0.00,,---,0.00,VWS V14.01,2013-02-18 00:50:00,
2013-02-17 19:53:00,18.4,7.2,30.33,SW,215,1.0,2.0,61,0.00,,---,0.00,VWS V14.01,2013-02-18 00:53:00,
2013-02-17 19:55:00,18.6,7.8,30.32,WSW,258,0.0,9.0,62,0.00,,---,0.00,VWS V14.01,2013-02-18 00:55:00,
2013-02-17 19:58:00,18.2,7.0,30.33,West,261,0.0,2.0,61,0.00,,---,0.00,VWS V14.01,2013-02-18 00:58:00,
2013-02-17 20:00:00,18.5,7.3,30.33,NW,312,5.0,12.0,61,0.00,,---,0.00,VWS V14.01,2013-02-18 01:00:00,
2013-02-17 20:03:00,18.1,7.3,30.33,WNW,295,0.0,3.0,62,0.00,,---,0.00,VWS V14.01,2013-02-18 01:03:00,
2013-02-17 20:05:00,18.4,7.2,30.33,SSW,210,2.0,10.0,61,0.00,,---,0.00,VWS V14.01,2013-02-18 01:05:00,
2013-02-17 20:09:00,18.1,7.3,30.34,West,259,2.0,4.0,62,0.00,,---,0.00,VWS V14.01,2013-02-18 01:09:00,
2013-02-17 20:10:00,18.2,7.0,30.33,West,261,1.0,7.0,61,0.00,,---,0.00,VWS V14.01,2013-02-18 01:10:00,
2013-02-17 20:14:00,18.0,7.2,30.34,West,262,0.0,4.0,62,0.00,,---,0.00,VWS V14.01,2013-02-18 01:14:00,
2013-02-17 20:15:00,18.1,7.3,30.33,WNW,288,2.0,4.0,62,0.00,,---,0.00,VWS V14.01,2013-02-18 01:15:00,
2013-02-17 20:19:00,17.9,7.1,30.34,WSW,252,5.0,5.0,62,0.00,,---,0.00,VWS V14.01,2013-02-18 01:19:00,
2013-02-17 20:20:00,18.0,7.2,30.34,West,273,4.0,9.0,62,0.00,,---,0.00,VWS V14.01,2013-02-18 01:20:00,
2013-02-17 20:24:00,17.7,6.9,30.34,WSW,252,0.0,1.0,62,0.00,,---,0.00,VWS V14.01,2013-02-18 01:24:00,
2013-02-17 20:25:00,18.0,7.2,30.34,West,259,4.0,9.0,62,0.00,,---,0.00,VWS V14.01,2013-02-18 01:25:00,
2013-02-17 20:29:00,17.7,7.3,30.34,WSW,242,5.0,9.0,63,0.00,,---,0.00,VWS V14.01,2013-02-18 01:29:00,
2013-02-17 20:30:00,17.9,7.1,30.34,WSW,252,0.0,6.0,62,0.00,,---,0.00,VWS V14.01,2013-02-18 01:30:00,
2013-02-17 20:34:00,17.7,7.3,30.35,WSW,257,0.0,0.0,63,0.00,,---,0.00,VWS V14.01,2013-02-18 01:34:00,
2013-02-17 20:35:00,17.7,6.9,30.34,WSW,252,1.0,8.0,62,0.00,,---,0.00,VWS V14.01,2013-02-18 01:35:00,
2013-02-17 20:39:00,17.6,7.5,30.35,WNW,293,0.0,3.0,64,0.00,,---,0.00,VWS V14.01,2013-02-18 01:39:00,
2013-02-17 20:40:00,17.7,7.3,30.34,WSW,244,5.0,7.0,63,0.00,,---,0.00,VWS V14.01,2013-02-18 01:40:00,
2013-02-17 20:44:00,17.6,7.2,30.34,NW,304,0.0,0.0,63,0.00,,---,0.00,VWS V14.01,2013-02-18 01:44:00,
2013-02-17 20:45:00,17.7,7.3,30.35,WSW,249,0.0,9.0,63,0.00,,---,0.00,VWS V14.01,2013-02-18 01:45:00,
2013-02-17 20:49:00,17.5,7.4,30.35,WSW,250,0.0,3.0,64,0.00,,---,0.00,VWS V14.01,2013-02-18 01:49:00,
2013-02-17 20:50:00,17.6,7.5,30.35,WNW,290,0.0,3.0,64,0.00,,---,0.00,VWS V14.01,2013-02-18 01:50:00,
2013-02-17 20:54:00,17.4,7.0,30.35,WSW,249,0.0,0.0,63,0.00,,---,0.00,VWS V14.01,2013-02-18 01:54:00,
2013-02-17 20:55:00,17.6,7.2,30.35,NW,304,0.0,6.0,63,0.00,,---,0.00,VWS V14.01,2013-02-18 01:55:00,
2013-02-17 20:59:00,17.3,7.2,30.35,West,273,0.0,0.0,64,0.00,,---,0.00,VWS V14.01,2013-02-18 01:59:00,
2013-02-17 21:00:00,17.5,7.4,30.35,WSW,250,0.0,5.0,64,0.00,,---,0.00,VWS V14.01,2013-02-18 02:00:00,
2013-02-17 21:04:00,17.2,7.1,30.35,WSW,248,1.0,6.0,64,0.00,,---,0.00,VWS V14.01,2013-02-18 02:04:00,
2013-02-17 21:05:00,17.4,7.3,30.35,WSW,250,0.0,3.0,64,0.00,,---,0.00,VWS V14.01,2013-02-18 02:05:00,
2013-02-17 21:09:00,17.1,7.7,30.35,West,259,0.0,0.0,66,0.00,,---,0.00,VWS V14.01,2013-02-18 02:09:00,
2013-02-17 21:10:00,17.3,7.2,30.35,West,273,0.0,3.0,64,0.00,,---,0.00,VWS V14.01,2013-02-18 02:10:00,
2013-02-17 21:14:00,17.0,7.6,30.35,West,259,0.0,0.0,66,0.00,,---,0.00,VWS V14.01,2013-02-18 02:14:00,
2013-02-17 21:15:00,17.2,7.1,30.35,West,265,2.0,4.0,64,0.00,,---,0.00,VWS V14.01,2013-02-18 02:15:00,
2013-02-17 21:19:00,16.8,7.8,30.36,West,259,0.0,0.0,67,0.00,,---,0.00,VWS V14.01,2013-02-18 02:19:00,
2013-02-17 21:20:00,17.1,7.7,30.35,West,259,0.0,6.0,66,0.00,,---,0.00,VWS V14.01,2013-02-18 02:20:00,
2013-02-17 21:24:00,16.6,7.6,30.36,West,259,0.0,0.0,67,0.00,,---,0.00,VWS V14.01,2013-02-18 02:24:00,
2013-02-17 21:25:00,17.0,7.6,30.35,West,259,0.0,0.0,66,0.00,,---,0.00,VWS V14.01,2013-02-18 02:25:00,
2013-02-17 21:29:00,16.5,8.1,30.36,West,259,0.0,0.0,69,0.00,,---,0.00,VWS V14.01,2013-02-18 02:29:00,
2013-02-17 21:30:00,16.9,7.5,30.36,West,259,0.0,1.0,66,0.00,,---,0.00,VWS V14.01,2013-02-18 02:30:00,
2013-02-17 21:35:00,16.4,8.3,30.36,West,259,0.0,0.0,70,0.00,,---,0.00,VWS V14.01,2013-02-18 02:35:00,
2013-02-17 21:40:00,16.2,8.8,30.37,West,259,0.0,0.0,72,0.00,,---,0.00,VWS V14.01,2013-02-18 02:40:00,
2013-02-17 21:45:00,16.1,9.0,30.36,West,259,0.0,0.0,73,0.00,,---,0.00,VWS V14.01,2013-02-18 02:45:00,
2013-02-17 21:50:00,16.0,9.2,30.37,West,259,0.0,0.0,74,0.00,,---,0.00,VWS V14.01,2013-02-18 02:50:00,
2013-02-17 21:55:00,15.9,9.4,30.36,West,259,0.0,0.0,75,0.00,,---,0.00,VWS V14.01,2013-02-18 02:55:00,
2013-02-17 22:00:00,15.9,9.1,30.36,West,259,0.0,0.0,74,0.00,,---,0.00,VWS V14.01,2013-02-18 03:00:00,
2013-02-17 22:05:00,16.0,8.9,30.37,West,261,0.0,1.0,73,0.00,,---,0.00,VWS V14.01,2013-02-18 03:05:00,
2013-02-17 22:10:00,16.4,8.3,30.37,West,270,0.0,1.0,70,0.00,,---,0.00,VWS V14.01,2013-02-18 03:10:00,
2013-02-17 22:15:00,16.6,8.5,30.37,West,269,0.0,0.0,70,0.00,,---,0.00,VWS V14.01,2013-02-18 03:15:00,
2013-02-17 22:20:00,16.7,8.0,30.37,West,273,2.0,2.0,68,0.00,,---,0.00,VWS V14.01,2013-02-18 03:20:00,
2013-02-17 22:25:00,16.9,7.8,30.37,West,273,0.0,0.0,67,0.00,,---,0.00,VWS V14.01,2013-02-18 03:25:00,
2013-02-17 22:30:00,16.8,8.7,30.37,West,273,0.0,0.0,70,0.00,,---,0.00,VWS V14.01,2013-02-18 03:30:00,
2013-02-17 22:35:00,16.3,8.6,30.37,West,273,0.0,0.0,71,0.00,,---,0.00,VWS V14.01,2013-02-18 03:35:00,
2013-02-17 22:40:00,15.7,8.3,30.37,West,273,0.0,0.0,72,0.00,,---,0.00,VWS V14.01,2013-02-18 03:40:00,
2013-02-17 22:45:00,15.0,7.9,30.38,West,273,0.0,0.0,73,0.00,,---,0.00,VWS V14.01,2013-02-18 03:45:00,
2013-02-17 22:50:00,14.4,7.6,30.38,West,273,0.0,0.0,74,0.00,,---,0.00,VWS V14.01,2013-02-18 03:50:00,
2013-02-17 22:55:00,13.6,7.2,30.38,West,273,0.0,0.0,75,0.00,,---,0.00,VWS V14.01,2013-02-18 03:55:00,
2013-02-17 23:00:00,12.9,6.8,30.38,West,273,0.0,0.0,76,0.00,,---,0.00,VWS V14.01,2013-02-18 04:00:00,
2013-02-17 23:05:00,14.0,7.6,30.38,West,273,0.0,0.0,75,0.00,,---,0.00,VWS V14.01,2013-02-18 04:05:00,
2013-02-17 23:06:00,12.2,6.4,30.38,West,273,0.0,0.0,77,0.00,,---,0.00,VWS V14.01,2013-02-18 04:06:00,
2013-02-17 23:10:00,13.2,7.1,30.38,West,273,0.0,0.0,76,0.00,,---,0.00,VWS V14.01,2013-02-18 04:10:00,
2013-02-17 23:11:00,11.6,6.4,30.39,West,273,0.0,0.0,79,0.00,,---,0.00,VWS V14.01,2013-02-18 04:11:00,
2013-02-17 23:15:00,12.5,6.7,30.38,West,273,0.0,0.0,77,0.00,,---,0.00,VWS V14.01,2013-02-18 04:15:00,
2013-02-17 23:16:00,10.9,5.9,30.39,West,273,0.0,0.0,80,0.00,,---,0.00,VWS V14.01,2013-02-18 04:16:00,
2013-02-17 23:20:00,11.9,6.4,30.39,West,273,0.0,0.0,78,0.00,,---,0.00,VWS V14.01,2013-02-18 04:20:00,
2013-02-17 23:21:00,10.3,5.6,30.39,West,273,0.0,0.0,81,0.00,,---,0.00,VWS V14.01,2013-02-18 04:21:00,
2013-02-17 23:25:00,11.2,6.0,30.39,West,273,0.0,0.0,79,0.00,,---,0.00,VWS V14.01,2013-02-18 04:25:00,
2013-02-17 23:26:00,9.8,5.7,30.39,West,273,0.0,0.0,83,0.00,,---,0.00,VWS V14.01,2013-02-18 04:26:00,
2013-02-17 23:30:00,10.5,5.8,30.39,West,273,0.0,0.0,81,0.00,,---,0.00,VWS V14.01,2013-02-18 04:30:00,
2013-02-17 23:31:00,9.4,5.6,30.39,West,273,0.0,0.0,84,0.00,,---,0.00,VWS V14.01,2013-02-18 04:31:00,
2013-02-17 23:35:00,9.9,5.5,30.39,West,273,0.0,0.0,82,0.00,,---,0.00,VWS V14.01,2013-02-18 04:35:00,
2013-02-17 23:36:00,9.0,5.2,30.39,West,273,0.0,0.0,84,0.00,,---,0.00,VWS V14.01,2013-02-18 04:36:00,
2013-02-17 23:40:00,9.6,5.5,30.39,West,273,0.0,0.0,83,0.00,,---,0.00,VWS V14.01,2013-02-18 04:40:00,
2013-02-17 23:41:00,8.6,5.0,30.39,West,273,0.0,0.0,85,0.00,,---,0.00,VWS V14.01,2013-02-18 04:41:00,
2013-02-17 23:45:00,9.2,5.4,30.39,West,273,0.0,0.0,84,0.00,,---,0.00,VWS V14.01,2013-02-18 04:45:00,
2013-02-17 23:46:00,8.2,4.6,30.39,West,273,0.0,0.0,85,0.00,,---,0.00,VWS V14.01,2013-02-18 04:46:00,
2013-02-17 23:50:00,8.8,5.2,30.40,West,273,0.0,0.0,85,0.00,,---,0.00,VWS V14.01,2013-02-18 04:50:00,
2013-02-17 23:51:00,7.8,4.5,30.39,West,273,0.0,0.0,86,0.00,,---,0.00,VWS V14.01,2013-02-18 04:51:00,
2013-02-17 23:55:00,8.4,4.8,30.39,West,273,0.0,0.0,85,0.00,,---,0.00,VWS V14.01,2013-02-18 04:55:00,
2013-02-17 23:56:00,7.5,4.2,30.40,West,273,0.0,0.0,86,0.00,,---,0.00,VWS V14.01,2013-02-18 04:56:00,